This demonstration page uses our WeatherBlox Daily Observations layout. Learn more.

Left ArrowRight Arrow

44.8408, -93.29828

Hourly Observations for October 29, 2021

Temp ( °F °C ) Dew Point ( °F °C ) Humidity (%) Winds ( mph kmh ) Pressure ( in mb ) Visibility ( mi km ) Precip ( " mm )
12:53 am 00:53 Cloudy 48 8.9 44 6.7 86 86 N 14 22 29.91 1013 10 16 N/A
1:53 am 01:53 Cloudy 47 8.3 44 6.7 90 90 N 13 20 29.91 1013 10 16 N/A
2:33 am 02:33 Cloudy 47 8.3 44 6.7 90 90 N 15 24 29.92 1013 10 16 N/A
2:42 am 02:42 Cloudy 48 8.9 44 6.7 86 86 N 10 17 29.92 1013 10 16 N/A
2:53 am 02:53 Cloudy 48 8.9 44 6.7 86 86 N 12 19 29.92 1013 10 16 N/A
3:53 am 03:53 Cloudy 48 8.9 44 6.7 86 86 N 13 20 29.92 1013 10 16 N/A
4:53 am 04:53 Cloudy 48 8.9 43 6.1 83 83 N 12 19 29.93 1014 10 16 N/A
5:53 am 05:53 Mostly Cloudy 47 8.3 42 5.6 83 83 NNW 14 22 29.92 1013 10 16 N/A
6:00 am 06:00 Partly Cloudy 46 7.8 42 5.6 86 86 NNW 16 26 29.93 1013 10 16 N/A
6:53 am 06:53 Mostly Clear 46 7.8 41 5 83 83 N 16 26 29.95 1014 10 16 N/A
7:53 am 07:53 Mostly Sunny 45 7.2 40 4.4 83 83 N 12 19 29.97 1015 10 16 N/A
8:53 am 08:53 Mostly Sunny 46 7.8 41 5 83 83 N 10 17 29.98 1015 10 16 N/A
9:53 am 09:53 Mostly Sunny 48 8.9 40 4.4 74 74 N 17 28 29.99 1016 10 16 N/A
10:53 am 10:53 Mostly Sunny 51 10.6 41 5 69 69 N 13 20 29.98 1015 10 16 N/A
11:53 am 11:53 Mostly Sunny 54 12.2 41 5 62 62 NNE 13 20 29.98 1015 10 16 N/A
12:53 pm 12:53 Mostly Sunny 55 12.8 41 5 59 59 NNW 12 19 29.96 1014 10 16 N/A
1:53 pm 13:53 Mostly Sunny 57 13.9 41 5 55 55 N 12 19 29.94 1014 10 16 N/A
2:53 pm 14:53 Mostly Sunny 57 13.9 40 4.4 53 53 NNE 12 19 29.92 1013 10 16 N/A
3:53 pm 15:53 Mostly Sunny 58 14.4 40 4.4 51 51 N 8 13 29.93 1013 10 16 N/A
4:53 pm 16:53 Mostly Sunny 57 13.9 39 3.9 51 51 NNE 12 19 29.93 1014 10 16 N/A
5:53 pm 17:53 Mostly Sunny 53 11.7 39 3.9 59 59 NNE 8 13 29.94 1014 10 16 N/A
6:53 pm 18:53 Clear 51 10.6 39 3.9 64 64 NE 6 9 29.94 1014 10 16 N/A
7:53 pm 19:53 Clear 50 10 40 4.4 68 68 NE 6 9 29.95 1014 10 16 N/A
8:53 pm 20:53 Clear 48 8.9 40 4.4 74 74 NE 6 9 29.94 1014 10 16 N/A
9:53 pm 21:53 Clear 45 7.2 40 4.4 83 83 N N/A 29.94 1014 10 16 N/A
10:53 pm 22:53 Clear 45 7.2 39 3.9 80 80 NE 3 6 29.93 1014 10 16 N/A
11:53 pm 23:53 Clear 41 5 39 3.9 93 93 N N/A 29.92 1013 10 16 N/A

Powered by AerisWeather